Location: Rowland
(34.5359°N, 79.2929°W)
Time: 20:02:55
(UTC+00:00)

Transit 2A Rocket - Pass Details

Date: 12 October 2022
Orbit: 589 x 911 km, 66.7° (Epoch: 03 December)

Event Time Altitude Azimuth Distance (km) Brightness Sun altitude
Rises 17:47:42 0° 334° (NNW) 3,090 7.8 46.6°
Reaches altitude 10° 17:49:58 10° 335° (NNW) 2,217 7.2 46.5°
Maximum altitude 17:55:03 83° 63° (ENE) 784 5.8 46.2°
Drops below altitude 10° 18:00:38 10° 152° (SSE) 2,422 8.2 45.8°
Sets 18:03:11 0° 153° (SSE) 3,397 8.8 45.6°
